Hourly Data Report for September 28, 2017

All times are specified in Local Standard Time (LST). Add 1 hour to adjust for Daylight Saving Time where and when it is observed.

EAST POINT (AUT)
PRINCE EDWARD ISLAND

46°27'36.000" N
61°59'18.000" W
7.70 m
8300418
71412
WEP

Download Data

Hourly Data (September 2017)
Hourly Data Report for September 28, 2017
Temp Definition
°C
Dew Point Temp Definition
°C
Rel Hum Definition
%
Wind Dir Definition
10's deg

Wind Spd Definition
km/h
Visibility Definition
km
Stn Press Definition
kPa
Hmdx Definition


Wind Chill Definition


Weather Definition


TIME
00:00 17.9 16.5 92 19 25   100.42     LegendNANA
01:00 18.1 16.8 92 20 22   100.37     LegendNANA
02:00 18.5 17.2 92 21 20   100.34     LegendNANA
03:00 18.9 17.5 91 20 14   100.30     LegendNANA
04:00 19.3 18.0 93 22 11   100.29     LegendNANA
05:00 18.3 17.0 92 18 8   100.14     LegendNANA
06:00 18.0 16.9 93 19 6   100.09     LegendNANA
07:00 18.5 17.5 94 20 4   100.10     LegendNANA
08:00 18.7 17.7 94 24 6   100.08     LegendNANA
09:00 19.2 18.2 94 27 7   100.01     LegendNANA
10:00 19.1 18.1 94 22 4   100.06     LegendNANA
11:00 18.2 15.8 86 28 25   100.06     LegendNANA
12:00 18.5 15.0 80 28 25   100.01     LegendNANA
13:00 17.8 12.7 72 29 31   100.01     LegendNANA
14:00 17.0 12.1 73 29 30   100.00     LegendNANA
15:00 16.8 11.9 73 28 22   100.06     LegendNANA
16:00 16.2 10.8 71 30 29   100.08     LegendNANA
17:00 15.9 10.9 72 31 31   100.09     LegendNANA
18:00 16.0 10.7 71 31 31   100.12     LegendNANA
19:00 15.9 11.0 72 32 25   100.14     LegendNANA
20:00 15.9 10.3 70 32 29   100.16     LegendNANA
21:00 15.3 9.3 68 32 32   100.17     LegendNANA
22:00 14.7 9.3 70 31 32   100.17     LegendNANA
23:00 14.2 8.0 66 31 34   100.16     LegendNANA

Notes on Data Quality.

Legend

  • E = Estimated
  • M = Missing
  • NA = Not Available
  • ‡ = Partner data that is not subject to review by the National Climate Archives
Date modified: